Miscellaneous Local Product
Issued by NWS Hastings, NE

Home | Current Version | Previous Version | Graphics & Text | Print | Product List | Glossary On
Versions: 1 2 3 4 5 6 7 8 9 10 11 12 13 14 15 16 17 18 19 20 21 22 23 24 25 26 27 28 29 30 31 32 33 34 35 36 37 38 39 40 41 42 43 44 45 46 47 48 49 50
672
AXUS43 KGID 240202
MISGRI

GID CWA HOURLY WEATHER ROUNDUP
NATIONAL WEATHER SERVICE HASTINGS NE
900 PM CDT SAT SEP 23 2017

NOTE: "FAIR" INDICATES FEW OR NO CLOUDS BELOW 12,000 FEET WITH NO
SIGNIFICANT WEATHER AND/OR OBSTRUCTIONS TO VISIBILITY.

...SOUTH CENTRAL NEBRASKA...

CITY           SKY/WX    TMP DP  RH WIND       PRES   REMARKS
GRAND ISLAND   CLOUDY    63  58  83 NE6       29.89R
HASTINGS       CLOUDY    72  59  63 N7        29.88R
KEARNEY        CLOUDY    60  59  96 N12       29.89F
ORD            RAIN      56  53  90 NE5       29.89F
YORK           CLOUDY    81  59  47 S10       29.88R
AURORA         CLOUDY    78  60  54 S8        29.88R
LEXINGTON      CLOUDY    57  55  93 E5        29.89R
HOLDREGE       CLOUDY    59  58  94 NE9       29.88S
HEBRON         PTCLDY    79  60  52 SE8       29.89R

...NEBRASKA PANHANDLE...

CITY           SKY/WX    TMP DP  RH WIND       PRES   REMARKS
CHADRON        LGT RAIN  46  44  93 N6        30.03R FOG
ALLIANCE       LGT RAIN  45  43  93 N9        30.00R
SCOTTSBLUFF    LGT RAIN  46  43  89 MISG      30.02R
SIDNEY         CLOUDY    46  44  93 N14       29.98R

...WESTERN AND NORTH CENTRAL NEBRASKA...

CITY           SKY/WX    TMP DP  RH WIND       PRES   REMARKS
VALENTINE      CLOUDY    51  49  92 NW5       29.96S
AINSWORTH      RAIN      51  51 100 N6        29.97R
ONEILL         LGT RAIN  55  55 100 NE5       29.93R
BROKEN BOW     RAIN      55  55 100 NE5       29.88F
IMPERIAL       LGT RAIN  54  52  93 NE12      29.91F
NORTH PLATTE   LGT RAIN  53  52  96 NW9       29.92R
MCCOOK         CLOUDY    60  60 100 NE7       29.87F

...EASTERN NEBRASKA...

CITY           SKY/WX    TMP DP  RH WIND       PRES   REMARKS
NORFOLK        PTCLDY    61  58  90 NW9       29.92R
SO SIOUX CITY  CLOUDY    78  65  63 S8        29.87R
TEKAMAH        PTCLDY    76  63  64 SE7       29.88R
COLUMBUS       PTCLDY    78  63  59 SE8       29.88R
ALBION         PTCLDY    58  55  91 N6        29.91S
OMAHA EPPLEY   MOCLDY    82  64  54 SE14      29.90R
OFFUTT AFB     CLEAR     75  64  70 E8        29.90S
MILLARD        CLEAR     83  65  54 SE10      29.90S
LINCOLN        CLOUDY    82  63  52 S18       29.89R
NEBRASKA CITY  CLEAR     76  64  66 S6        29.93R
BEATRICE       CLOUDY    82  64  54 SE12      29.90S
FALLS CITY     CLEAR     75  66  73 SE7       29.92S

...NORTHERN KANSAS...

CITY           SKY/WX    TMP DP  RH WIND       PRES   REMARKS
GOODLAND       LGT RAIN  57  57 100 E8        29.89F
HILL CITY      MOCLDY    72  61  68 CALM      29.84S
NORTON         MOCLDY    61  55  82 NE5       29.85S
PHILLIPSBURG   CLEAR     82  57  42 SE14      29.83S
SMITH CENTER   CLEAR     79  57  47 SE14G20   29.85S
HAYS           PTCLDY    80  59  48 SE18      29.84F
RUSSELL        PTCLDY    81  57  43 SE20G26   29.85S
CONCORDIA      PTCLDY    79  61  53 SE14      29.89R
SALINA         PTCLDY    82  61  48 SE13      29.89R
TOPEKA         CLEAR     75  67  76 E3        29.94R



USA.gov is the U.S. government's official web portal to all federal, state and local government web resources and services.